Lanai City, HI

4:35 PM HST on September 30, 2016 (GMT -1000)
Lanai City

Weather History for PHNY - October, 2012

Change the Weather History Date:

Friday, October 12, 2012

  Actual Average Record
Temperature  
Mean Temperature 75 °F -  
Max Temperature 84 °F 81 °F 85 °F (1979)
Min Temperature 66 °F 65 °F 61 °F (1955)
Cooling Degree Days 10    
Growing Degree Days 25 (Base 50)    
Moisture  
Dew Point 64 °F    
Average Humidity 70    
Maximum Humidity 90    
Minimum Humidity 51    
Precipitation  
Precipitation 0.00 in - - ()
Sea Level Pressure  
Sea Level Pressure 30.09 in    
Wind  
Wind Speed 4 mph (North)    
Max Wind Speed 14 mph    
Max Gust Speed -    
Visibility 10 miles    
Events      
Averages and records for this station are not official NWS values.
T = Trace of Precipitation, MM = Missing Value Source: NWS Daily Summary

Daily Weather History Graph

Daily Weather History Graph

Search for Another Location

Airport or City:

Trip Planner

Search our weather history database for the weather conditions in past years. The results will help you decide how hot, cold, wet, or windy it might be!

Date:

Astronomy

Oct. 12, 2012 Rise Set
Actual Time 6:22 AM HST 6:05 PM HST
Civil Twilight 6:00 AM HST 6:27 PM HST
Nautical Twilight 5:34 AM HST 6:53 PM HST
Astronomical Twilight 5:08 AM HST 7:19 PM HST
Moon 3:37 AM HST (10/12) 4:06 PM HST (10/12)
Length of Visible Light 12h 27m
Length of Day
11h 43m
Waning Crescent, 9% of the Moon is Illuminated
Oct 12
Waning Crescent
Oct 15
New
Oct 21
First Quarter
Oct 29
Full
Nov 6
Last Quarter

Hourly Weather History & Observations

Time (HST) Temp. Heat Index Dew Point Humidity Pressure Visibility Wind Dir Wind Speed Gust Speed Precip Events Conditions
12:56 AM 70.0 °F - 63.9 °F 81% 30.06 in 10.0 mi East 4.6 mph - N/A   Scattered Clouds
1:18 AM 69.8 °F - 64.4 °F 83% 30.13 in 10.0 mi ENE 5.8 mph - N/A   Mostly Cloudy
1:46 AM 69.8 °F - 62.6 °F 78% 30.13 in 10.0 mi Calm Calm - N/A   Scattered Clouds
1:56 AM 68.0 °F - 62.6 °F 83% 30.13 in 10.0 mi Calm Calm - N/A   Mostly Cloudy
2:08 AM 68.0 °F - 62.6 °F 83% 30.12 in 10.0 mi Calm Calm - N/A   Scattered Clouds
2:56 AM 66.9 °F - 61.9 °F 84% 30.06 in 10.0 mi NNE 6.9 mph - N/A   Clear
3:56 AM 68.0 °F - 63.9 °F 87% 30.04 in 10.0 mi NNE 8.1 mph - N/A   Clear
4:56 AM 66.9 °F - 63.9 °F 90% 30.06 in 10.0 mi Variable 4.6 mph - N/A   Clear
5:56 AM 66.9 °F - 63.0 °F 87% 30.08 in 10.0 mi Calm Calm - N/A   Clear
6:56 AM 66.9 °F - 63.9 °F 90% 30.10 in 10.0 mi Calm Calm - N/A   Clear
7:56 AM 77.0 °F - 64.9 °F 66% 30.10 in 10.0 mi Calm Calm - N/A   Clear
8:56 AM 79.9 °F - 63.0 °F 56% 30.10 in 10.0 mi NNW 5.8 mph - N/A   Clear
9:56 AM 82.9 °F 84.2 °F 63.9 °F 52% 30.10 in 10.0 mi West 5.8 mph - N/A   Partly Cloudy
10:56 AM 82.4 °F 83.9 °F 64.4 °F 54% 30.16 in 10.0 mi Calm Calm - N/A   Partly Cloudy
11:56 AM 81.9 °F 83.5 °F 64.9 °F 56% 30.06 in 10.0 mi SSW 5.8 mph - N/A   Partly Cloudy
12:56 PM 83.8 °F 85.6 °F 64.9 °F 53% 30.04 in 10.0 mi WNW 6.9 mph - N/A   Scattered Clouds
1:09 PM 82.4 °F 83.9 °F 64.4 °F 54% 30.11 in 10.0 mi Variable 5.8 mph - N/A   Mostly Cloudy
1:56 PM 84.2 °F 86.6 °F 66.2 °F 55% 30.09 in 10.0 mi West 3.5 mph - N/A   Scattered Clouds
2:16 PM 84.2 °F 85.6 °F 64.4 °F 51% 30.09 in 10.0 mi WSW 6.9 mph - N/A   Mostly Cloudy
2:26 PM 84.2 °F 86.6 °F 66.2 °F 55% 30.09 in 9.0 mi West 5.8 mph - N/A   Mostly Cloudy
2:39 PM 84.2 °F 86.6 °F 66.2 °F 55% 30.09 in 10.0 mi Variable 6.9 mph - N/A   Mostly Cloudy
2:56 PM 81.9 °F 83.9 °F 65.8 °F 58% 30.02 in 10.0 mi West 4.6 mph - N/A   Mostly Cloudy
3:56 PM 81.0 °F 83.0 °F 65.8 °F 60% 30.03 in 10.0 mi West 6.9 mph - N/A   Mostly Cloudy
4:35 PM 78.8 °F - 66.2 °F 65% 30.10 in 10.0 mi West 4.6 mph - N/A   Scattered Clouds
4:56 PM 78.8 °F - 66.2 °F 65% 30.10 in 10.0 mi Calm Calm - N/A   Partly Cloudy
5:56 PM 73.9 °F - 64.9 °F 73% 30.05 in 10.0 mi NE 13.8 mph - N/A   Clear
6:56 PM 72.0 °F - 64.9 °F 78% 30.09 in 10.0 mi East 5.8 mph - N/A   Partly Cloudy
7:56 PM 71.6 °F - 64.4 °F 78% 30.17 in 10.0 mi ENE 6.9 mph - N/A   Partly Cloudy
8:56 PM 70.0 °F - 63.0 °F 78% 30.12 in - East 5.8 mph - N/A   Clear
9:56 PM 70.0 °F - 63.0 °F 78% 30.12 in 10.0 mi NE 10.4 mph - N/A   Partly Cloudy
10:56 PM 68.9 °F - 61.9 °F 78% 30.12 in 10.0 mi Calm Calm - N/A   Clear
11:56 PM 68.9 °F - 63.0 °F 81% 30.12 in 10.0 mi ENE 5.8 mph - N/A   Clear